"2019/01/01",  2.0,  3.5,  0.9
"2019/01/02",  2.7,  4.3,  1.5
"2019/01/03",  2.3,  3.6,  1.1
"2019/01/04"," * "," * "," * "
"2019/01/05"," * "," * "," * "
"2019/01/06"," * "," * "," * "
"2019/01/07"," * "," * "," * "
"2019/01/08",  1.9,  3.3,  0.8
"2019/01/09",  2.6,  4.0,  1.7
"2019/01/10",  1.5,  2.3,  0.7
"2019/01/11",  1.7,  3.3,  0.4
"2019/01/12"," * "," * "," * "
"2019/01/13"," * "," * "," * "
"2019/01/14"," * "," * "," * "
"2019/01/15"," * "," * "," * "
"2019/01/16",  3.4,  4.9,  2.0
"2019/01/17",  3.9,  5.2,  2.6
"2019/01/18",  3.5,  4.5,  2.5
"2019/01/19",  3.0,  4.6,  1.6
"2019/01/20",  3.1,  4.9,  1.6
"2019/01/21",  3.2,  4.6,  2.2
"2019/01/22",  2.5,  4.2,  1.0
"2019/01/23",  2.9,  4.5,  1.5
"2019/01/24",  2.9,  4.1,  1.8
"2019/01/25",  2.5,  4.0,  1.0
"2019/01/26",  2.9,  4.0,  2.2
"2019/01/27",  2.6,  4.3,  1.2
"2019/01/28",  2.2,  3.6,  1.0
"2019/01/29",  2.7,  4.2,  1.5
"2019/01/30",  2.4,  4.2,  0.8
"2019/01/31",  2.4,  3.3,  1.4
"2019/02/01",  2.7,  4.3,  1.6
"2019/02/02",  2.2,  3.8,  0.8
"2019/02/03",  2.9,  4.7,  1.0
"2019/02/04",  5.9,  7.6,  4.0
"2019/02/05",  4.7,  5.5,  4.0
"2019/02/06",  4.4,  4.9,  4.0
"2019/02/07",  4.3,  6.0,  2.6
"2019/02/08",  4.3,  5.2,  3.4
"2019/02/09",  2.5,  3.4,  2.0
"2019/02/10",  2.8,  4.6,  1.7
"2019/02/11",  2.1,  3.0,  1.8
"2019/02/12",  2.4,  3.9,  1.0
"2019/02/13",  2.9,  3.6,  2.3
"2019/02/14",  3.1,  4.3,  1.9
"2019/02/15",  2.1,  3.0,  1.5
"2019/02/16",  3.2,  4.9,  1.7
"2019/02/17",  3.5,  5.0,  2.1
"2019/02/18",  3.4,  5.2,  1.7
"2019/02/19",  4.3,  5.2,  3.4
"2019/02/20",  6.3,  8.0,  4.7
"2019/02/21",  7.0,  8.6,  5.3
"2019/02/22"," * "," * "," * "
"2019/02/23"," * "," * "," * "
"2019/02/24"," * "," * "," * "
"2019/02/25"," * "," * "," * "
"2019/02/26",  7.2,  7.8,  6.6
"2019/02/27",  6.3,  7.0,  5.3
"2019/02/28",  6.3,  6.6,  6.0
"2019/03/01",  7.2,  9.1,  5.9
"2019/03/02",  7.0,  9.0,  5.0
"2019/03/03",  6.1,  7.0,  5.6
"2019/03/04",  6.7,  7.3,  6.1
"2019/03/05",  7.2,  9.3,  5.5
"2019/03/06",  7.7,  8.8,  6.5
"2019/03/07",  7.9,  8.5,  7.3
"2019/03/08",  7.2,  9.2,  5.2
"2019/03/09",  6.9,  9.1,  4.5
"2019/03/10",  8.0,  9.4,  6.3
"2019/03/11",  9.1, 10.1,  8.5
"2019/03/12",  8.6, 10.8,  6.3
"2019/03/13",  8.9, 10.7,  7.1
"2019/03/14",  7.9,  9.8,  5.9
"2019/03/15",  7.7,  9.5,  5.6
"2019/03/16",  8.0,  9.3,  6.7
"2019/03/17",  7.7,  9.4,  5.8
"2019/03/18",  7.9, 10.0,  5.6
"2019/03/19",  9.3, 11.6,  7.2
"2019/03/20", 10.5, 13.1,  8.2
"2019/03/21", 10.9, 12.3,  9.5
"2019/03/22", 12.4, 14.4, 10.9
"2019/03/23",  9.9, 12.1,  8.2
"2019/03/24",  8.4, 10.7,  6.1
"2019/03/25",  9.2, 11.5,  7.1
"2019/03/26",  9.7, 10.8,  8.9
"2019/03/27",  9.8, 12.1,  7.5
"2019/03/28", 10.2, 11.0,  9.4
"2019/03/29",  8.4,  9.5,  7.9
"2019/03/30",  7.9,  8.3,  7.6
"2019/03/31",  8.8, 11.0,  7.4
"2019/04/01",  8.9, 11.0,  6.8
"2019/04/02",  8.5, 10.6,  6.7
"2019/04/03",  8.2, 10.8,  5.8
"2019/04/04",  8.9, 11.8,  6.1
"2019/04/05", 10.2, 12.6,  7.7
"2019/04/06", 11.7, 14.1,  9.3
"2019/04/07", 12.7, 14.9, 10.9
"2019/04/08", 11.4, 13.3,  9.9
"2019/04/09", 10.4, 12.8,  8.1
"2019/04/10",  9.1, 10.6,  8.0
"2019/04/11",  9.2, 11.4,  7.3
"2019/04/12"," * "," * "," * "
"2019/04/13"," * "," * "," * "
"2019/04/14"," * "," * "," * "
"2019/04/15"," * "," * "," * "
"2019/04/16"," * "," * "," * "
"2019/04/17", 12.8, 14.1, 11.1
"2019/04/18", 14.3, 17.2, 11.9
"2019/04/19", 15.5, 17.9, 13.3
"2019/04/20", 15.0, 17.0, 13.0
"2019/04/21", 15.1, 16.7, 13.8
"2019/04/22", 16.0, 18.4, 14.1
"2019/04/23", 16.8, 18.7, 14.9
"2019/04/24", 16.6, 17.2, 15.9
"2019/04/25", 17.4, 19.2, 15.9
"2019/04/26", 15.2, 18.0, 13.3
"2019/04/27", 12.7, 13.3, 11.9
"2019/04/28", 12.9, 15.8, 10.2
"2019/04/29", 13.9, 15.5, 12.0
"2019/04/30", 14.3, 15.0, 13.5
"2019/05/01", 15.5, 17.4, 14.0
"2019/05/02", 16.6, 18.2, 15.2
"2019/05/03", 17.0, 19.1, 14.8
"2019/05/04", 17.8, 20.0, 16.0
"2019/05/05", 18.2, 20.3, 16.0
"2019/05/06", 18.4, 19.8, 17.0
"2019/05/07", 17.1, 18.2, 15.3
"2019/05/08", 15.9, 18.6, 13.3
"2019/05/09", 16.9, 18.2, 15.5
"2019/05/10", 17.6, 20.0, 15.1
"2019/05/11", 18.2, 20.1, 16.2
"2019/05/12", 18.1, 19.5, 16.9
"2019/05/13", 18.1, 19.9, 16.5
"2019/05/14", 18.0, 18.6, 17.5
"2019/05/15", 17.9, 19.2, 16.6
"2019/05/16", 18.7, 21.4, 16.3
"2019/05/17", 19.8, 22.1, 17.7
"2019/05/18", 20.0, 21.7, 18.4
"2019/05/19", 20.2, 21.9, 18.7
"2019/05/20", 20.1, 21.2, 18.8
"2019/05/21", 19.1, 20.2, 18.4
"2019/05/22", 18.8, 20.5, 17.3
"2019/05/23", 19.3, 21.4, 17.4
"2019/05/24", 19.9, 22.3, 17.7
"2019/05/25", 20.9, 22.9, 18.8
"2019/05/26", 21.6, 23.6, 19.5
"2019/05/27", 22.3, 24.2, 20.4
"2019/05/28", 21.8, 22.9, 21.0
"2019/05/29", 20.3, 21.4, 19.6
"2019/05/30", 20.4, 22.7, 18.5
"2019/05/31", 20.5, 21.4, 19.6
"2019/06/01", 20.9, 22.4, 19.5
"2019/06/02", 21.0, 21.7, 20.1
"2019/06/03", 21.4, 23.1, 20.0
"2019/06/04", 21.9, 23.4, 20.3
"2019/06/05", 21.7, 22.6, 20.8
"2019/06/06", 22.2, 24.4, 20.3
"2019/06/07", 21.7, 23.4, 20.5
"2019/06/08", 20.1, 20.5, 19.7
"2019/06/09", 19.0, 19.7, 18.5
"2019/06/10", 17.7, 18.6, 16.9
"2019/06/11", 17.5, 19.0, 16.4
"2019/06/12", 18.1, 19.1, 17.3
"2019/06/13", 19.4, 22.0, 17.3
"2019/06/14", 20.7, 22.4, 18.9
"2019/06/15", 19.5, 21.2, 18.7
"2019/06/16", 20.2, 22.5, 18.4
"2019/06/17", 21.1, 23.0, 19.3
"2019/06/18", 21.8, 23.3, 20.3
"2019/06/19", 22.3, 24.1, 20.6
"2019/06/20", 22.5, 23.7, 21.5
"2019/06/21", 22.2, 22.7, 21.7
"2019/06/22", 21.6, 22.1, 21.0
"2019/06/23", 21.0, 21.6, 20.5
"2019/06/24", 19.9, 20.5, 19.6
"2019/06/25", 20.7, 22.8, 19.1
"2019/06/26", 22.1, 24.1, 20.1
"2019/06/27", 22.8, 23.7, 21.7
"2019/06/28", 22.7, 23.3, 22.2
"2019/06/29", 21.1, 22.2, 20.7
"2019/06/30", 20.5, 20.7, 20.3
"2019/07/01", 20.5, 20.8, 20.2
"2019/07/02", 21.3, 22.6, 20.3
"2019/07/03", 22.0, 22.9, 21.2
"2019/07/04", 21.7, 22.2, 21.1
"2019/07/05", 20.9, 21.3, 20.5
"2019/07/06", 20.5, 20.8, 20.2
"2019/07/07", 20.0, 20.4, 19.5
"2019/07/08", 19.7, 20.7, 18.8
"2019/07/09", 19.6, 20.1, 19.3
"2019/07/10", 19.7, 20.8, 18.8
"2019/07/11", 20.1, 21.2, 19.2
"2019/07/12", 20.1, 20.5, 19.7
"2019/07/13", 20.9, 22.4, 19.5
"2019/07/14", 20.8, 21.7, 20.4
"2019/07/15", 20.4, 21.3, 19.8
"2019/07/16", 20.0, 20.6, 19.3
"2019/07/17", 21.0, 22.8, 19.9
"2019/07/18", 21.9, 22.8, 21.0
"2019/07/19", 23.3, 25.2, 21.8
"2019/07/20", 24.5, 25.9, 23.3
"2019/07/21", 23.4, 24.5, 22.5
"2019/07/22", 21.9, 22.5, 21.7
"2019/07/23", 22.3, 23.4, 21.5
"2019/07/24", 24.1, 26.3, 22.2
"2019/07/25", 25.4, 27.2, 23.9
"2019/07/26", 26.0, 27.7, 24.5
"2019/07/27", 26.2, 27.2, 25.4
"2019/07/28", 25.5, 26.4, 24.6
"2019/07/29", 26.3, 28.2, 24.8
"2019/07/30", 27.1, 28.9, 25.6
"2019/07/31", 27.6, 29.0, 26.1
"2019/08/01", 28.0, 29.6, 26.6
"2019/08/02", 28.3, 29.8, 27.0
"2019/08/03", 28.4, 29.9, 27.0
"2019/08/04", 28.3, 29.7, 27.0
"2019/08/05", 28.1, 29.4, 26.9
"2019/08/06", 28.6, 30.4, 27.1
"2019/08/07", 28.8, 30.3, 27.4
"2019/08/08", 28.9, 30.6, 27.4
"2019/08/09", 29.2, 30.9, 27.6
"2019/08/10", 29.1, 30.4, 27.8
"2019/08/11", 28.4, 29.3, 27.5
"2019/08/12", 27.8, 28.7, 27.0
"2019/08/13", 27.7, 29.0, 26.7
"2019/08/14", 27.8, 28.5, 27.2
"2019/08/15", 27.8, 29.3, 26.6
"2019/08/16", 27.1, 28.2, 26.7
"2019/08/17", 27.4, 29.6, 25.9
"2019/08/18", 28.2, 29.7, 26.8
"2019/08/19", 27.7, 28.6, 27.1
"2019/08/20", 26.4, 27.3, 25.4
"2019/08/21", 25.8, 27.3, 24.6
"2019/08/22", 25.4, 26.2, 24.7
"2019/08/23", 25.4, 26.0, 24.9
"2019/08/24", 25.7, 27.0, 24.8
"2019/08/25", 25.7, 27.1, 24.4
"2019/08/26", 25.3, 26.2, 24.5
"2019/08/27", 25.2, 26.0, 24.3
"2019/08/28", 24.9, 25.4, 24.4
"2019/08/29", 25.4, 27.0, 24.2
"2019/08/30", 25.2, 25.9, 24.8
"2019/08/31", 25.1, 26.1, 24.3
"2019/09/01", 25.5, 26.6, 24.6
"2019/09/02", 25.8, 26.9, 24.8
"2019/09/03", 25.1, 25.9, 24.6
"2019/09/04", 24.0, 24.6, 23.7
"2019/09/05", 24.2, 25.3, 23.4
"2019/09/06", 25.0, 26.2, 23.8
"2019/09/07", 25.3, 26.3, 24.3
"2019/09/08", 25.5, 26.3, 24.7
"2019/09/09", 24.5, 25.9, 23.3
"2019/09/10", 25.5, 26.7, 24.5
"2019/09/11", 25.9, 26.6, 25.3
"2019/09/12", 25.1, 25.8, 24.3
"2019/09/13", 23.4, 24.3, 22.6
"2019/09/14", 22.6, 23.3, 22.0
"2019/09/15", 23.1, 24.2, 22.2
"2019/09/16", 22.7, 23.6, 22.4
"2019/09/17", 23.3, 24.3, 22.5
"2019/09/18", 22.6, 23.4, 21.7
"2019/09/19", 21.7, 22.6, 21.1
"2019/09/20", 21.4, 22.5, 20.5
"2019/09/21", 21.2, 21.6, 20.8
"2019/09/22", 21.7, 23.2, 20.5
"2019/09/23", 22.7, 24.0, 21.4
"2019/09/24", 23.2, 24.3, 22.2
"2019/09/25", 23.0, 24.7, 21.8
"2019/09/26", 22.6, 24.1, 21.3
"2019/09/27", 22.3, 24.1, 20.7
"2019/09/28", 22.4, 24.2, 20.8
"2019/09/29", 22.9, 24.0, 21.9
"2019/09/30", 23.2, 24.7, 22.1
"2019/10/01", 23.0, 24.6, 21.7
"2019/10/02", 22.9, 24.6, 21.5
"2019/10/03", 22.4, 23.6, 21.3
"2019/10/04", 22.3, 23.2, 21.6
"2019/10/05", 22.3, 24.0, 20.9
"2019/10/06", 21.3, 22.4, 20.2
"2019/10/07", 20.2, 21.1, 19.3
"2019/10/08", 20.6, 21.5, 19.8
"2019/10/09", 20.8, 22.0, 19.8
"2019/10/10", 19.7, 20.8, 18.4
"2019/10/11"," * "," * "," * "
"2019/10/12", 20.5, 21.6, 19.7
"2019/10/13", 21.1, 22.5, 20.1
"2019/10/14", 19.2, 20.3, 18.5
"2019/10/15", 18.4, 19.0, 17.9
"2019/10/16", 17.6, 18.3, 17.0
"2019/10/17", 17.5, 18.6, 16.6
"2019/10/18", 17.5, 17.9, 17.2
"2019/10/19", 17.3, 17.9, 16.4
"2019/10/20", 18.0, 18.9, 17.3
"2019/10/21", 17.7, 18.2, 17.3
"2019/10/22", 16.0, 17.4, 15.6
"2019/10/23", 16.4, 18.1, 15.0
"2019/10/24", 16.9, 17.4, 16.5
"2019/10/25", 15.8, 16.7, 14.7
"2019/10/26", 15.6, 17.1, 14.3
"2019/10/27", 16.2, 16.9, 15.6
"2019/10/28", 15.9, 16.8, 15.0
"2019/10/29", 14.9, 15.5, 14.6
"2019/10/30", 15.2, 16.6, 14.2
"2019/10/31", 15.4, 16.6, 14.3
"2019/11/01", 15.1, 16.5, 13.8
"2019/11/02", 14.6, 15.6, 13.6
"2019/11/03", 14.6, 15.4, 13.7
"2019/11/04", 14.7, 15.8, 13.8
"2019/11/05", 13.4, 14.6, 12.2
"2019/11/06", 12.8, 14.3, 11.6
"2019/11/07", 13.0, 14.2, 11.8
"2019/11/08", 13.3, 14.3, 12.4
"2019/11/09", 13.1, 14.2, 12.2
"2019/11/10", 12.9, 14.1, 11.8
"2019/11/11", 13.3, 14.3, 12.6
"2019/11/12", 13.1, 14.3, 11.9
"2019/11/13", 12.9, 13.7, 12.1
"2019/11/14", 13.6, 15.0, 12.6
"2019/11/15", 13.0, 13.8, 12.2
"2019/11/16", 11.9, 13.1, 10.7
"2019/11/17", 11.8, 13.0, 10.7
"2019/11/18", 12.2, 13.0, 11.5
"2019/11/19", 14.0, 15.2, 13.0
"2019/11/20", 12.5, 13.9, 11.6
"2019/11/21", 11.1, 12.0, 10.1
"2019/11/22", 10.3, 10.8, 10.0
"2019/11/23", 10.7, 11.5,  9.9
"2019/11/24", 12.5, 13.5, 11.4
"2019/11/25", 13.4, 14.3, 12.8
"2019/11/26", 11.4, 13.0, 10.4
"2019/11/27", 10.3, 10.6,  9.9
"2019/11/28", 10.0, 10.5,  8.8
"2019/11/29",  8.1,  9.2,  7.1
"2019/11/30",  7.3,  8.7,  6.0
"2019/12/01",  7.1,  8.3,  6.1
"2019/12/02",  8.1,  9.4,  7.0
"2019/12/03",  9.3, 10.4,  8.4
"2019/12/04",  8.1,  9.3,  6.8
"2019/12/05",  7.3,  8.6,  6.0
"2019/12/06",  7.1,  7.7,  6.6
"2019/12/07",  6.4,  6.8,  6.0
"2019/12/08",  6.3,  7.9,  4.8
"2019/12/09",  6.0,  6.8,  5.1
"2019/12/10",  7.9,  9.3,  6.7
"2019/12/11",  9.2, 10.1,  8.1
"2019/12/12",  9.4, 10.6,  8.2
"2019/12/13",  7.2,  8.5,  6.7
"2019/12/14",  7.5,  8.7,  6.6
"2019/12/15",  6.7,  7.8,  5.6
"2019/12/16",  6.3,  7.7,  5.0
"2019/12/17",  6.9,  7.9,  6.1
"2019/12/18",  8.1,  9.3,  7.4
"2019/12/19",  7.5,  8.0,  7.2
"2019/12/20",  7.8,  9.1,  6.8
"2019/12/21",  7.2,  7.7,  6.9
"2019/12/22",  6.5,  7.0,  5.8
"2019/12/23",  6.8,  8.2,  5.8
"2019/12/24",  5.9,  7.0,  4.8
"2019/12/25",  5.1,  6.0,  4.5
"2019/12/26",  5.2,  6.4,  4.2
"2019/12/27",  6.9,  8.0,  6.1
"2019/12/28",  5.1,  6.2,  4.0
"2019/12/29",  4.4,  5.7,  3.1
"2019/12/30",  5.1,  5.6,  4.7
"2019/12/31",  6.1,  7.8,  5.0
